[[{"header":{"parameterUnit":"m.s-1","parameterCategory":1,"la1":30.2991,"la2":30.254,"lo1":-89.0895,"lo2":-89.0444,"dy":0.0017,"dx":0.0017,"nx":28,"ny":28,"refTime":"2024-05-21T03:00:00:Z","depth":0,"parameterNumber":2,"parameterNumberName":"U-component_of_WINDS"},"data":[0,0,0,0,0,0,0,0,0,0,0,0,0,0,0,0,0,0,0,0,0,0,0,0,0,0,0,0,0,0,0,0,0,0,0,0,0,0,0,0,0,0,0,0,0,0,0,0,0,0,0,0,0,0,0,0,0,0,-3.7506,-3.7507,0,-3.7609,-3.761,-3.7611,-3.7608,-3.7607,-3.7606,-3.7604,-3.7708,-3.7712,-3.7716,0,0,0,0,0,0,0,0,0,0,0,0,0,-3.7305,-3.7308,-3.7506,-3.7507,-3.7508,-3.7609,-3.761,-3.7612,-3.7609,-3.7607,-3.7605,-3.7604,-3.7707,-3.7712,-3.7717,0,0,0,0,0,0,0,0,0,0,0,0,0,-3.7398,-3.731,-3.7505,-3.7519,-3.7521,-3.7608,-3.761,-3.7612,-3.7609,-3.7607,-3.7605,-3.7603,-3.7705,-3.7711,-3.7717,-3.7797,0,0,-3.7736,-3.7739,0,0,0,0,0,0,0,0,-3.7393,-3.7406,-3.7516,-3.7518,-3.7521,-3.7594,-3.7577,-3.7674,-3.7609,-3.7576,-3.7604,-3.7602,-3.7672,-3.768,-3.7704,-3.7802,-3.7807,-3.7736,-3.774,-3.7743,-3.7745,0,0,0,0,0,0,0,-3.7387,-3.7401,-3.7546,-3.7517,-3.752,-3.7519,-3.753,-3.7596,-3.7634,-3.7578,-3.7578,-3.7591,-3.7673,-3.7698,-3.7707,-3.7808,-3.7736,-3.7742,-3.7746,-3.7748,-3.7976,-3.7978,0,0,0,0,0,0,-3.7377,-3.7396,-3.7543,-3.755,-3.745,-3.7525,-3.7537,-3.7572,-3.7633,-3.7641,-3.7592,-3.759,-3.7689,-3.77,-3.771,-3.7807,-3.7743,-3.7749,-3.7752,-3.7974,-3.7977,-3.7979,0,0,0,0,0,0,-3.7373,-3.7391,-3.7539,-3.7473,-3.7492,-3.753,-3.757,-3.7576,-3.7601,-3.7644,-3.7651,-3.7612,-3.7688,-3.7702,-3.7776,-3.7811,-3.7751,-3.7757,-3.7971,-3.7975,-3.7978,-3.8002,0,0,0,0,0,0,-3.7367,-3.7389,-3.742,-3.7474,-3.7495,-3.7603,-3.7572,-3.7579,-3.7612,-3.761,-3.7664,-3.7671,-3.7687,-3.7767,-3.7782,-3.7818,-3.7762,-3.7968,-3.7972,-3.7977,-3.7998,-3.8006,-3.8012,0,0,0,0,0,-3.736,-3.7423,-3.7422,-3.744,-3.7535,-3.7605,-3.7617,-3.7635,-3.7615,-3.7646,-3.7674,-3.7669,-3.7805,-3.7774,-3.7791,-3.783,-3.7966,-3.7971,-3.7976,-3.7995,-3.8004,-3.8012,0,0,0,0,0,0,-3.7372,-3.743,-3.743,-3.7511,-3.7553,-3.7604,-3.7644,-3.7645,-3.7693,-3.7689,-3.7709,-3.7721,-3.7795,-3.782,-3.7785,-3.791,-3.7883,-3.7892,-3.7891,-3.79,-3.7907,-3.7899,-3.7767,0,0,0,0,0,-3.7384,-3.7437,-3.7485,-3.7552,-3.7573,-3.7605,-3.7637,-3.7647,-3.7691,-3.7708,-3.7741,-3.7784,-3.7836,-3.787,-3.792,-3.8002,-3.8013,-3.8037,-3.8045,-3.805,-3.8057,-3.8101,-3.8112,-3.7997,-3.7997,-3.7997,0,0,-3.741,-3.7448,-3.748,-3.7555,-3.7589,-3.7642,-3.762,-3.7678,-3.7717,-3.7717,-3.7788,-3.7814,-3.7863,-3.7941,-3.7977,-3.7964,-3.8092,-3.8057,-3.8061,-3.8065,-3.8108,-3.8119,-3.8129,-3.8,-3.8,-3.7999,0,0,-3.7483,-3.7518,-3.7578,-3.7612,-3.7663,-3.7684,-3.7699,-3.775,-3.7767,-3.784,-3.784,-3.7888,-3.7977,-3.8012,-3.8041,-3.8128,-3.8125,-3.8144,-3.818,-3.8223,-3.8232,-3.824,-3.827,-3.828,-3.8151,-3.8151,-3.8151,0,-3.7508,-3.7589,-3.7608,-3.7666,-3.7698,-3.7702,-3.7761,-3.7794,-3.7859,-3.7881,-3.7866,-3.7979,-3.8012,-3.8097,-3.8118,-3.8143,-3.8159,-3.8137,-3.823,-3.8238,-3.8246,-3.8274,-3.8285,-3.8153,-3.8152,-3.8152,-3.8152,0,-3.7616,-3.7672,-3.7714,-3.7777,-3.7815,-3.7873,-3.7901,-3.7937,-3.7944,-3.7966,-3.8039,-3.8079,-3.8137,-3.8159,-3.8167,-3.8246,-3.8236,-3.8225,-3.8197,-3.8258,-3.8285,-3.8296,-3.8155,-3.8155,-3.8154,-3.8154,0,0,-3.7699,-3.7772,-3.7787,-3.7815,-3.7873,-3.7916,-3.7974,-3.8032,-3.8061,-3.8107,-3.8155,-3.8231,-3.8222,-3.8255,-3.8266,-3.8304,-3.8369,-3.8289,-3.829,-3.8301,-3.8457,-3.8463,-3.8475,-3.8368,-3.837,-3.8372,-3.8452,0,-3.7777,-3.7881,-3.79,-3.7991,-3.8042,-3.8046,-3.8097,-3.8137,-3.8159,-3.8206,-3.8231,-3.8284,-3.8268,-3.8288,-3.8326,-3.8353,-3.84,-3.8348,-3.8412,-3.8414,-3.8398,-3.849,-3.8497,-3.857,-3.8463,-3.8465,-3.8466,0,-3.7882,-3.793,-3.8025,-3.8075,-3.8097,-3.8143,-3.8196,-3.8241,-3.8286,-3.83,-3.8337,-3.8345,-3.8405,-3.8376,-3.8458,-3.8422,-3.845,-3.8468,-3.8471,-3.8476,-3.8442,-3.8496,-3.8594,-3.8605,-3.8483,-3.8482,-3.848,0,-3.7931,-3.8019,-3.8087,-3.8112,-3.8172,-3.8203,-3.823,-3.8273,-3.8306,-3.8353,-3.8375,-3.8428,-3.8457,-3.8498,-3.8519,-3.8496,-3.86,-3.8573,-3.8612,-3.8611,-3.8632,-3.863,-3.8735,-3.8653,-3.8653,-3.8652,-3.8652,0,-3.8015,-3.8073,-3.811,-3.8152,-3.8216,-3.8238,-3.8301,-3.8327,-3.8366,-3.8412,-3.8419,-3.8463,-3.8489,-3.8536,-3.8553,-3.8618,-3.8631,-3.8643,-3.8647,-3.8642,-3.864,-3.8659,-3.8654,-3.8655,-3.8655,-3.8654,-3.8654,0,-3.808,-3.8107,-3.8182,-3.8233,-3.8247,-3.8292,-3.8335,-3.8376,-3.8398,-3.8457,-3.8472,-3.8508,-3.8563,-3.8589,-3.8658,-3.8669,-3.8743,-3.8744,-3.8727,-3.8728,-3.8765,-3.876,-3.8884,-3.8901,-3.8809,-3.881,-3.8811,0,-3.8131,-3.8176,-3.8232,-3.8263,-3.829,-3.8342,-3.8375,-3.8398,-3.8433,-3.8488,-3.8521,-3.8577,-3.8623,-3.8712,-3.8743,-3.8796,-3.8797,-3.8837,-3.8805,-3.8798,-3.8796,-3.8792,-3.8796,-3.8842,-3.8843,-3.8843,-3.8844,0,-3.8219,-3.823,-3.8279,-3.8332,-3.8372,-3.8415,-3.8457,-3.8482,-3.8511,-3.855,-3.8607,-3.8643,-3.8713,-3.8768,-3.8823,-3.8849,-3.8851,-3.8854,-3.8866,-3.886,-3.8848,-3.8853,-3.8741,-3.8851,-3.885,-3.885,-3.8849,-3.8849,-3.8278,-3.8317,-3.8362,-3.8415,-3.845,-3.8489,-3.8529,-3.8557,-3.8605,-3.8663,-3.8674,-3.8734,-3.8778,-3.8852,-3.8881,-3.8928,-3.8918,-3.8935,-3.8939,-3.8943,-3.8944,-3.8842,-3.8938,-3.8938,-3.8938,-3.8938,-3.8938,0,-3.8364,-3.8393,-3.8443,-3.8501,-3.8543,-3.8542,-3.8588,-3.8623,-3.8676,-3.8717,-3.8762,-3.8827,-3.8881,-3.8917,-3.8971,-3.9001,-3.9004,-3.9015,-3.9012,-3.9018,-3.895,-3.8934,-3.9012,-3.9012,-3.9012,-3.9012,-3.9012,-3.9012,-3.8414,-3.848,-3.8497,-3.8579,-3.8608,-3.8667,-3.8694,-3.8729,-3.8762,-3.8834,-3.8879,-3.8902,-3.8941,-3.8998,-3.9047,-3.9056,-3.9075,-3.9086,-3.9094,-3.903,-3.9022,-3.9015,-3.9,-3.909,-3.909,-3.9158,-3.9158,-3.9159]},{"header":{"parameterUnit":"m.s-1","parameterCategory":1,"la1":30.2991,"la2":30.254,"lo1":-89.0895,"lo2":-89.0444,"dy":0.0017,"dx":0.0017,"nx":28,"ny":28,"refTime":"2024-05-21T03:00:00:Z","depth":0,"parameterNumber":3,"parameterNumberName":"V-component_of_WINDS"},"data":[0,0,0,0,0,0,0,0,0,0,0,0,0,0,0,0,0,0,0,0,0,0,0,0,0,0,0,0,0,0,0,0,0,0,0,0,0,0,0,0,0,0,0,0,0,0,0,0,0,0,0,0,0,0,0,0,0,0,6.0129,6.0129,0,6.0103,6.0102,6.0102,6.0017,6.0015,6.0013,6.0012,5.9986,5.9987,5.9988,0,0,0,0,0,0,0,0,0,0,0,0,0,6.0108,6.0109,6.0129,6.0129,6.0129,6.0103,6.0102,6.0102,6.0017,6.0015,6.0013,6.0011,5.9985,5.9987,5.9988,0,0,0,0,0,0,0,0,0,0,0,0,0,6.0103,6.0109,6.0129,6.0083,6.0079,6.0103,6.0102,6.0102,6.0018,6.0015,6.0012,6.001,5.9985,5.9986,5.9988,6.0055,0,0,5.9993,5.9994,0,0,0,0,0,0,0,0,6.0103,6.0104,6.009,6.0086,6.0082,6.006,6.0085,6.0086,6.0019,6.0041,6.0011,6.0008,6.0013,6.0012,6.0013,6.0053,6.0052,5.9993,5.9994,5.9995,5.9995,0,0,0,0,0,0,0,6.0104,6.0104,6.0119,6.009,6.0085,6.0064,6.006,6.0085,6.0043,6.0039,6.0033,6.0031,6.001,6.0012,6.0012,6.0052,5.9993,5.9994,5.9995,5.9996,6.0144,6.0147,0,0,0,0,0,0,6.0111,6.0105,6.0119,6.0118,6.0086,6.0067,6.0063,6.007,6.0043,6.0036,6.0033,6.0027,6.0011,6.001,6.0011,6.0085,5.9995,5.9996,5.9997,6.0141,6.0144,6.0148,0,0,0,0,0,0,6.011,6.0113,6.0121,6.011,6.0109,6.007,6.0079,6.0071,6.0073,6.0038,6.0031,6.0043,6.0008,6.0009,6.0044,6.0083,5.9997,5.9998,6.0137,6.0142,6.0146,6.0235,0,0,0,0,0,0,6.011,6.0113,6.0138,6.0111,6.011,6.0154,6.0082,6.0072,6.0076,6.0067,6.0045,6.0039,6.0006,6.0042,6.0045,6.0084,6.0,6.0134,6.0139,6.0145,6.0229,6.0242,6.0254,0,0,0,0,0,6.011,6.0165,6.0139,6.0142,6.014,6.0156,6.0156,6.0117,6.0079,6.0103,6.0081,6.004,6.0079,6.0046,6.005,6.0089,6.0131,6.0138,6.0144,6.0223,6.024,6.0254,0,0,0,0,0,0,6.0198,6.016,6.0132,6.018,6.0172,6.0142,6.0171,6.0136,6.0139,6.0131,6.0083,6.0078,6.012,6.0108,6.0073,6.0151,6.0098,6.0106,6.0157,6.0172,6.0185,6.0186,6.0001,0,0,0,0,0,6.0223,6.0239,6.0205,6.0251,6.0248,6.0211,6.0217,6.0187,6.0177,6.0173,6.0154,6.0146,6.0156,6.0164,6.0172,6.0228,6.0221,6.0256,6.0269,6.0279,6.0286,6.0313,6.0328,6.0169,6.0169,6.0169,0,0,6.0274,6.0256,6.0269,6.0268,6.0258,6.0276,6.0209,6.023,6.0243,6.0177,6.0208,6.0194,6.0182,6.0227,6.0246,6.0219,6.0328,6.0288,6.0297,6.0297,6.0321,6.0336,6.0349,6.0174,6.0173,6.0172,0,0,6.0376,6.0365,6.04,6.0392,6.0378,6.0353,6.0362,6.0337,6.0325,6.0356,6.0306,6.0321,6.034,6.0333,6.0332,6.0432,6.0393,6.0436,6.0501,6.0528,6.054,6.0551,6.0585,6.0598,6.0443,6.0444,6.0444,0,6.0442,6.0466,6.0424,6.0448,6.0448,6.039,6.0425,6.0419,6.0409,6.0411,6.038,6.0402,6.039,6.0432,6.0456,6.0459,6.0466,6.0437,6.0542,6.0552,6.0562,6.0593,6.0606,6.0449,6.0448,6.0448,6.0447,0,6.0547,6.0564,6.0595,6.0585,6.0589,6.062,6.0582,6.0591,6.0562,6.054,6.0572,6.0556,6.0558,6.0567,6.0539,6.0604,6.0587,6.0551,6.0496,6.0583,6.0611,6.0623,6.0456,6.0454,6.0453,6.0451,0,0,6.0702,6.0668,6.068,6.0674,6.0655,6.0667,6.0695,6.0697,6.0705,6.0701,6.0721,6.0739,6.0704,6.0704,6.0674,6.0698,6.0776,6.0658,6.0657,6.0678,6.0846,6.0872,6.0886,6.0751,6.0754,6.0755,6.0846,0,6.0797,6.084,6.0803,6.0854,6.0869,6.0813,6.0837,6.0828,6.0808,6.0818,6.0797,6.0809,6.0764,6.0763,6.0784,6.0762,6.0809,6.0755,6.0769,6.077,6.0771,6.0902,6.093,6.1016,6.0857,6.0859,6.086,0,6.0913,6.0912,6.0964,6.094,6.0945,6.0967,6.0965,6.0976,6.0964,6.0948,6.0947,6.0911,6.0936,6.0884,6.0918,6.0882,6.0886,6.0876,6.0879,6.0876,6.0819,6.0901,6.1042,6.1055,6.0878,6.0877,6.0875,0,6.1018,6.1031,6.1063,6.106,6.1033,6.105,6.1039,6.1025,6.1028,6.1027,6.1029,6.1031,6.1032,6.1035,6.1001,6.0966,6.1038,6.0983,6.1024,6.1025,6.104,6.1039,6.1182,6.1047,6.1047,6.1046,6.1046,0,6.1127,6.116,6.1109,6.1129,6.1164,6.1122,6.1158,6.1143,6.113,6.1146,6.1099,6.1115,6.1069,6.108,6.1054,6.1084,6.1086,6.1073,6.1065,6.1076,6.1077,6.1076,6.1068,6.105,6.1049,6.1048,6.1048,0,6.1249,6.1217,6.1247,6.122,6.1213,6.1241,6.1217,6.1234,6.1212,6.1232,6.1234,6.1199,6.121,6.1176,6.1182,6.1164,6.1208,6.1192,6.1211,6.1205,6.1247,6.1243,6.1392,6.1409,6.1266,6.1267,6.1269,0,6.1319,6.1343,6.1318,6.1324,6.1316,6.1328,6.1331,6.129,6.1295,6.1283,6.1301,6.1308,6.131,6.133,6.1305,6.1309,6.129,6.1343,6.1291,6.13,6.1288,6.1286,6.1288,6.1353,6.1354,6.1356,6.1357,0,6.1446,6.1429,6.1434,6.1434,6.1438,6.1437,6.1432,6.144,6.1396,6.1404,6.1414,6.1416,6.1421,6.1427,6.1426,6.1415,6.1379,6.1374,6.1383,6.1393,6.1402,6.1395,6.1238,6.137,6.1369,6.1368,6.1367,6.1367,6.1543,6.1561,6.1545,6.1553,6.1545,6.1541,6.1555,6.1534,6.1541,6.1541,6.1518,6.1532,6.1519,6.1513,6.1506,6.1516,6.1492,6.1506,6.1509,6.1513,6.1519,6.1403,6.1516,6.1516,6.1516,6.1515,6.1515,0,6.1666,6.1653,6.166,6.1654,6.166,6.1625,6.1618,6.1625,6.1637,6.1628,6.1632,6.1642,6.1648,6.1625,6.1627,6.164,6.1623,6.1642,6.1639,6.1637,6.1541,6.1532,6.1655,6.1655,6.1655,6.1655,6.1655,6.1655,6.173,6.1758,6.1739,6.1763,6.175,6.1762,6.1761,6.1757,6.1749,6.1763,6.1767,6.1752,6.1736,6.1737,6.1741,6.1734,6.1736,6.176,6.1747,6.1658,6.1644,6.1631,6.1622,6.1762,6.1762,6.1842,6.1842,6.1843]}]]